Wind_Speed
20 15 11 15 18 18 21 28 27 25 22 25 38 39 44 56 63 56 48 43 42 45 50 54 56 55 53 48 48 48 47 46 44 45 45 45 45 45 45 45 46 47 47 47
22 15 15 20 20 19 21 29 25 16 20 21 26 25 38 50 59 63 62 56 54 56 58 57 57 54 50 49 49 48 47 46 47 45 47 46 44 42 43 44 46 47 48 49
19 19 21 22 22 22 24 27 21 24 26 30 34 33 33 38 49 52 54 53 54 53 55 57 57 56 52 45 44 44 44 46 47 47 47 44 44 40 41 43 43 44 45 47
21 24 25 27 28 28 30 26 26 33 33 35 36 38 28 26 36 37 43 54 54 49 50 49 51 50 44 45 45 45 47 47 47 46 46 44 42 42 43 43 42 46 48 49
21 27 29 32 29 35 34 35 33 32 37 40 34 36 32 24 25 32 38 36 32 34 36 42 44 43 42 46 47 47 46 44 42 41 39 39 41 44 47 47 47 50 51 53
24 28 31 31 32 34 35 31 35 36 39 44 42 42 39 34 32 36 41 34 29 30 34 34 34 39 42 44 45 43 41 40 39 39 37 35 37 43 47 50 51 51 53 54
21 24 26 31 33 35 37 35 35 38 41 42 38 42 46 41 40 38 37 35 38 38 34 34 34 36 39 40 41 38 36 35 35 31 26 25 30 36 41 45 48 49 51 52
24 25 26 33 33 37 37 37 38 40 39 40 42 42 43 43 44 44 44 43 42 39 38 41 40 39 41 43 42 36 32 29 27 23 24 29 32 36 42 44 48 51 54 56
23 26 31 33 34 33 35 35 36 36 37 37 36 39 39 37 36 44 48 41 35 34 36 40 44 41 42 41 37 34 33 29 27 28 30 35 39 42 46 47 46 49 52 57
9 8 10 10 21 28 35 39 38 39 40 40 37 32 30 31 33 38 43 41 34 32 31 34 37 39 40 40 38 35 35 32 34 36 41 45 48 48 49 49 51 54 54 55
19 13 14 16 20 19 21 30 32 32 41 37 30 34 29 29 32 35 39 41 41 40 36 33 39 44 44 44 44 45 47 48 49 50 52 52 54 58 62 60 62 59 61 61
20 23 21 20 24 25 29 30 32 35 33 36 38 33 29 34 32 34 42 44 44 42 40 34 34 40 51 48 50 54 56 56 53 54 54 55 58 62 66 65 67 68 66 63
20 22 21 22 23 26 30 33 35 38 41 45 47 41 35 35 36 34 34 34 35 39 46 46 45 44 46 44 48 49 53 58 58 57 61 59 63 72 70 70 72 66 65 67
24 26 26 26 27 29 32 37 40 43 46 47 48 46 36 38 42 41 37 39 40 40 37 40 43 45 48 49 54 56 54 58 60 64 66 69 72 74 70 69 69 68 69 69
28 29 31 31 32 34 36 38 42 46 45 47 43 45 40 40 41 44 49 47 43 44 45 47 47 51 54 55 54 55 55 57 60 63 68 69 69 69 68 68 70 71 69 67
30 31 32 34 36 37 39 40 38 40 44 46 46 45 41 38 43 40 43 46 51 54 54 50 52 53 53 55 55 54 57 60 64 67 67 67 68 68 69 68 67 68 65 60
29 30 33 35 35 36 37 35 38 37 39 41 41 39 34 34 36 42 45 43 42 44 44 50 49 49 50 52 57 58 61 64 63 62 62 64 65 65 64 63 63 58 59 63
29 30 31 32 31 30 31 32 32 31 28 28 30 32 32 32 34 35 38 40 42 42 44 47 50 52 55 57 58 62 63 62 61 61 61 62 63 62 60 56 55 59 62 63
28 29 30 28 23 22 24 22 19 21 22 22 24 21 24 23 21 26 30 31 33 37 42 45 48 50 52 54 55 56 56 58 59 58 59 59 57 54 55 58 59 57 60 60
27 27 26 23 23 21 13 13 17 17 21 23 24 24 23 25 22 27 27 25 29 31 32 34 37 41 44 48 51 53 53 56 56 56 55 51 52 56 60 58 59 61 61 61
25 24 20 20 23 18 14 16 14 18 21 25 25 23 23 22 24 26 27 30 32 35 38 41 41 41 43 45 46 46 48 47 46 46 48 52 54 52 53 56 60 61 62 61
23 22 18 21 20 17 16 17 19 20 21 28 27 27 28 27 26 27 29 32 35 37 42 45 42 44 46 43 40 35 35 39 42 44 43 44 48 50 52 54 53 53 54 56
23 24 27 28 26 26 23 20 21 23 27 30 31 32 33 32 33 35 36 38 40 44 45 44 42 34 29 31 33 34 36 35 34 38 41 40 40 43 47 48 49 49 50 44
25 25 25 29 30 31 28 27 29 32 34 35 38 37 36 39 40 41 42 44 46 46 37 29 25 26 28 31 29 30 31 33 31 28 30 35 40 44 45 47 48 49 48 43
22 19 20 22 24 27 28 31 34 36 39 40 42 42 42 40 39 40 38 35 30 24 23 25 28 28 25 26 31 28 25 21 22 25 29 33 38 39 43 45 45 43 41 40
16 17 20 23 24 25 25 27 29 32 34 36 37 36 33 26 21 18 16 17 19 21 24 23 20 20 24 23 17 13 14 16 19 24 27 33 30 36 38 41 42 45 42 41
Wind_Direction
251 248 245 233 235 251 252 230 211 201 203 216 205 211 213 219 232 236 231 236 246 251 251 253 255 256 255 258 262 262 264 265 264 264 264 263 261 258 259 258 259 258 262 263
245 233 217 230 233 235 237 241 230 240 224 231 206 213 220 221 222 229 235 236 237 243 248 251 255 255 253 252 254 258 261 264 265 263 261 260 261 259 258 259 258 259 261 263
236 219 213 223 227 232 235 236 231 214 207 208 205 211 203 211 222 225 231 234 237 239 241 243 248 251 255 256 254 256 256 254 256 258 261 262 261 259 259 260 261 262 262 262
222 222 221 219 219 224 226 236 230 210 215 212 213 223 219 223 211 219 225 229 232 234 238 237 240 243 246 247 250 251 252 251 251 253 254 257 261 263 260 259 262 264 261 262
220 221 222 229 223 223 226 224 231 232 229 230 226 238 219 231 233 229 231 234 241 236 239 240 243 245 240 239 241 243 246 250 254 260 268 269 268 269 271 269 266 264 265 265
213 223 230 230 231 242 245 230 227 229 230 232 235 242 243 227 235 236 239 248 240 246 246 242 243 236 234 237 239 242 247 250 253 257 261 267 270 269 270 271 270 267 267 268
226 229 234 235 235 236 241 240 235 239 245 251 244 242 244 243 237 241 249 247 245 247 251 249 251 252 251 250 250 249 249 250 250 254 253 261 267 268 267 267 269 271 272 271
220 221 227 235 237 237 243 245 245 245 246 250 247 248 249 251 248 247 250 257 261 261 256 255 255 253 255 253 253 257 258 256 259 258 259 266 264 265 266 266 265 267 268 268
235 225 231 236 238 241 244 249 256 260 262 259 251 247 251 248 243 245 249 251 252 253 251 248 250 253 256 260 261 259 262 261 264 270 270 266 265 271 272 270 272 269 266 266
217 211 223 238 243 248 251 250 248 254 259 264 263 256 255 254 248 247 247 250 251 241 248 250 250 253 258 262 265 270 276 276 279 278 273 269 273 286 289 284 283 285 284 278
244 246 240 251 246 250 253 255 262 260 255 262 269 260 258 251 246 249 248 248 251 247 246 246 253 247 250 257 264 266 270 274 275 278 279 280 287 289 289 286 286 286 288 284
253 253 256 256 255 255 255 261 264 255 255 261 260 255 255 255 250 248 246 246 249 249 246 252 258 253 248 251 253 255 257 266 272 279 282 282 282 285 284 283 287 287 287 283
257 256 258 258 263 263 262 261 262 262 261 259 262 259 246 247 254 255 258 256 257 256 251 248 247 260 262 252 253 258 274 276 278 278 277 273 276 281 281 281 284 283 283 284
256 261 263 264 265 266 266 269 267 264 263 264 265 268 261 249 242 247 258 249 255 254 254 256 256 257 258 255 257 267 267 265 268 269 271 273 279 281 283 284 284 282 282 283
263 264 268 267 269 272 272 269 266 266 266 265 268 265 263 258 251 243 238 239 241 242 251 254 254 258 260 263 266 269 273 273 272 271 272 274 278 281 282 281 282 284 285 285
262 264 267 272 279 277 274 271 268 261 261 266 270 264 267 259 252 243 253 257 259 259 259 261 260 258 261 263 266 266 270 276 277 276 277 277 277 278 279 282 284 285 285 283
268 269 273 277 278 275 275 271 269 268 264 268 271 273 270 265 258 254 256 256 259 261 257 258 257 262 263 269 265 269 275 279 276 274 274 276 276 279 281 280 280 277 278 278
268 273 280 284 284 282 279 274 268 262 261 265 269 271 266 259 257 255 256 257 257 259 260 261 261 264 263 267 268 270 272 274 275 275 277 280 280 280 279 277 275 277 275 275
273 281 284 285 279 282 282 273 261 250 251 254 266 267 271 266 258 258 262 261 258 257 257 258 261 265 268 269 270 270 270 271 275 277 278 280 281 281 281 281 280 276 276 277
281 285 280 274 271 271 285 262 256 255 248 265 268 268 271 270 265 273 277 268 259 266 275 277 272 268 266 266 267 269 271 272 275 278 280 282 283 284 283 280 279 279 279 280
281 281 272 270 269 268 271 273 264 255 254 254 259 266 268 278 280 278 276 274 275 280 282 282 280 279 279 277 275 272 272 274 274 276 281 281 279 278 280 281 282 285 288 287
275 270 263 260 270 277 281 275 266 264 272 263 263 266 264 266 269 269 276 278 278 281 283 282 278 279 279 278 275 273 274 277 279 277 279 278 279 282 286 291 295 293 292 292
276 268 248 251 262 274 283 270 266 271 258 268 269 274 271 269 266 267 275 278 279 282 281 280 279 277 272 274 280 284 278 278 279 279 280 287 292 293 296 297 299 297 294 293
277 269 256 253 263 273 276 275 273 272 266 265 272 272 272 272 273 273 275 279 279 280 281 273 271 271 275 280 279 279 278 280 282 291 294 294 298 301 300 301 300 300 302 298
274 267 261 266 269 271 276 277 276 276 276 275 274 275 276 277 276 275 276 275 274 270 268 269 275 279 279 283 283 283 289 295 295 295 301 311 315 315 312 306 307 307 303 298
269 265 266 270 273 277 277 279 283 284 280 278 278 280 283 283 276 273 270 268 267 269 273 276 277 283 281 278 283 301 307 313 310 313 315 321 320 320 314 311 309 307 304 299
Height
5715 5717 5720 5722 5725 5728 5729 5731 5732 5734 5737 5737 5742 5745 5751 5758 5760 5765 5773 5780 5784 5789 5795 5795 5798 5803 5807 5811 5812 5813 5816 5818 5821 5822 5823 5825 5826 5826 5827 5828 5828 5828 5829 5828
5712 5717 5718 5720 5723 5725 5727 5730 5734 5736 5737 5736 5738 5740 5745 5749 5752 5759 5766 5773 5778 5782 5784 5786 5789 5793 5798 5801 5804 5806 5806 5807 5808 5808 5809 5811 5815 5817 5818 5818 5818 5817 5816 5815
5709 5711 5711 5715 5718 5721 5724 5726 5732 5734 5733 5733 5733 5733 5737 5743 5748 5753 5758 5764 5766 5770 5773 5776 5779 5782 5787 5792 5794 5796 5798 5799 5797 5798 5799 5802 5803 5806 5807 5806 5805 5803 5802 5803
5705 5706 5709 5710 5713 5716 5718 5724 5727 5729 5728 5728 5729 5729 5731 5735 5740 5745 5749 5752 5755 5760 5763 5766 5769 5774 5779 5780 5783 5784 5785 5787 5788 5790 5792 5792 5794 5794 5793 5793 5794 5791 5792 5790
5703 5702 5703 5706 5711 5708 5714 5716 5720 5724 5727 5727 5727 5726 5730 5732 5735 5739 5742 5744 5749 5754 5756 5758 5761 5765 5769 5770 5771 5773 5775 5777 5779 5780 5781 5780 5779 5779 5779 5782 5783 5781 5779 5779
5696 5698 5700 5703 5705 5708 5711 5713 5713 5714 5717 5718 5724 5723 5723 5728 5730 5732 5734 5739 5742 5744 5745 5748 5751 5753 5754 5755 5758 5763 5766 5768 5770 5770 5771 5772 5772 5770 5769 5768 5769 5769 5766 5765
5694 5695 5697 5700 5703 5703 5705 5707 5710 5710 5711 5713 5718 5718 5717 5721 5726 5728 5730 5732 5734 5736 5740 5742 5744 5746 5749 5749 5751 5753 5755 5757 5758 5762 5765 5766 5765 5763 5761 5759 5758 5757 5755 5753
5687 5691 5694 5694 5698 5699 5700 5702 5703 5703 5705 5707 5708 5708 5711 5714 5719 5720 5722 5725 5728 5730 5733 5735 5737 5738 5739 5740 5742 5744 5747 5750 5752 5754 5756 5755 5754 5752 5751 5751 5750 5749 5746 5743
5683 5687 5689 5690 5693 5697 5696 5697 5698 5698 5699 5699 5702 5703 5704 5706 5709 5709 5712 5716 5719 5721 5722 5725 5727 5729 5730 5732 5735 5737 5739 5741 5743 5744 5743 5743 5740 5739 5738 5737 5736 5735 5733 5730
5681 5683 5684 5686 5687 5689 5690 5691 5692 5692 5690 5690 5693 5696 5699 5702 5702 5703 5703 5707 5711 5714 5715 5717 5718 5720 5722 5723 5725 5727 5728 5730 5731 5731 5730 5728 5727 5725 5723 5722 5721 5718 5717 5714
5676 5679 5682 5683 5682 5684 5685 5683 5683 5684 5683 5682 5684 5688 5692 5695 5694 5694 5695 5698 5701 5704 5706 5708 5710 5711 5712 5714 5716 5717 5718 5719 5718 5717 5716 5714 5713 5710 5708 5706 5705 5702 5700 5699
5671 5672 5674 5677 5677 5677 5677 5676 5676 5676 5675 5675 5677 5681 5682 5684 5686 5687 5687 5689 5689 5692 5695 5697 5699 5701 5702 5704 5706 5706 5705 5705 5704 5704 5703 5702 5699 5696 5694 5692 5689 5686 5683 5679
5664 5664 5666 5668 5670 5668 5667 5668 5668 5666 5665 5664 5665 5668 5676 5677 5677 5679 5679 5681 5682 5683 5685 5687 5689 5690 5691 5689 5689 5691 5692 5693 5694 5692 5690 5688 5686 5683 5679 5678 5675 5671 5667 5662
5656 5657 5659 5660 5660 5661 5660 5657 5656 5655 5652 5652 5653 5654 5663 5666 5667 5668 5670 5672 5671 5671 5673 5675 5677 5678 5678 5679 5681 5682 5682 5681 5679 5677 5674 5672 5669 5664 5663 5660 5656 5652 5648 5645
5650 5650 5650 5651 5651 5650 5649 5648 5645 5643 5644 5640 5645 5643 5649 5651 5654 5654 5654 5655 5660 5661 5663 5665 5668 5668 5668 5668 5668 5666 5666 5665 5663 5661 5658 5656 5652 5649 5646 5642 5637 5632 5629 5628
5643 5643 5642 5641 5640 5638 5637 5635 5636 5634 5632 5630 5630 5632 5636 5639 5639 5641 5644 5646 5648 5650 5654 5654 5654 5654 5654 5654 5654 5653 5652 5650 5647 5643 5642 5639 5636 5632 5629 5624 5620 5616 5614 5611
5635 5634 5632 5631 5629 5627 5626 5626 5624 5624 5624 5622 5621 5624 5625 5627 5629 5630 5633 5635 5636 5638 5638 5640 5642 5642 5642 5641 5640 5639 5636 5634 5631 5628 5625 5623 5619 5617 5614 5610 5605 5602 5598 5595
5627 5625 5623 5621 5619 5618 5615 5614 5614 5614 5614 5615 5614 5613 5614 5616 5618 5620 5621 5623 5626 5628 5628 5628 5628 5628 5628 5627 5626 5624 5622 5618 5615 5612 5609 5606 5603 5600 5597 5594 5591 5587 5582 5577
5618 5616 5614 5613 5612 5611 5608 5607 5607 5607 5608 5608 5607 5607 5607 5608 5610 5610 5612 5613 5614 5614 5615 5615 5615 5616 5615 5613 5610 5609 5606 5604 5601 5599 5595 5592 5589 5585 5581 5577 5572 5567 5562 5557
5609 5608 5607 5606 5605 5605 5604 5602 5602 5602 5602 5602 5601 5601 5602 5602 5603 5603 5604 5603 5603 5604 5605 5603 5602 5601 5600 5599 5598 5597 5595 5592 5588 5584 5582 5579 5575 5570 5564 5559 5553 5548 5543 5538
5602 5600 5600 5598 5598 5598 5599 5598 5596 5597 5599 5596 5596 5596 5597 5596 5596 5595 5593 5594 5594 5593 5592 5591 5591 5590 5589 5587 5585 5583 5581 5579 5576 5574 5571 5567 5560 5553 5549 5542 5536 5530 5524 5517
5596 5595 5595 5592 5592 5593 5593 5592 5592 5591 5590 5589 5589 5589 5589 5589 5589 5588 5587 5586 5585 5584 5582 5580 5579 5578 5576 5573 5571 5571 5570 5568 5566 5562 5557 5552 5547 5541 5534 5526 5520 5512 5505 5498
5589 5588 5587 5588 5588 5586 5586 5586 5585 5584 5584 5582 5581 5580 5580 5581 5580 5579 5579 5577 5575 5574 5571 5569 5567 5567 5565 5563 5562 5562 5559 5555 5554 5550 5545 5540 5533 5526 5520 5513 5506 5498 5490 5481
5581 5580 5580 5581 5581 5579 5580 5580 5578 5576 5575 5573 5572 5571 5571 5570 5569 5568 5567 5566 5564 5562 5560 5558 5558 5558 5558 5556 5554 5551 5550 5547 5543 5538 5533 5528 5523 5517 5508 5500 5492 5484 5476 5469
5574 5574 5574 5574 5574 5573 5572 5570 5568 5567 5564 5562 5560 5559 5558 5557 5556 5555 5554 5553 5552 5552 5552 5552 5551 5551 5549 5547 5545 5543 5540 5537 5534 5530 5526 5521 5514 5506 5498 5488 5480 5472 5464 5456
5569 5568 5568 5568 5567 5566 5565 5562 5560 5557 5553 5551 5549 5548 5546 5546 5545 5544 5544 5545 5545 5546 5546 5546 5544 5543 5541 5540 5538 5537 5534 5532 5529 5525 5520 5514 5507 5499 5489 5480 5470 5459 5452 5445